Weather History for KCUT - February, 2013

Change the Weather History Date:

Friday, February 15, 2013

  Actual Average Record
Temperature  
Mean Temperature 16 °F 26 °F  
Max Temperature 26 °F 36 °F - ()
Min Temperature 5 °F 15 °F - ()
Degree Days  
Heating Degree Days 49 39  
Month to date heating degree days 581 604  
Since 1 July heating degree days 4990 5339  
Cooling Degree Days 0 0  
Month to date cooling degree days 0 0  
Year to date cooling degree days 0 0  
Moisture  
Dew Point 6 °F    
Average Humidity 58    
Maximum Humidity 80    
Minimum Humidity 35    
Precipitation  
Precipitation 0.00 in 0.02 in - ()
Month to date precipitation 0.05 0.29  
Year to date precipitation 0.85 0.62  
Sea Level Pressure  
Sea Level Pressure 30.34 in    
Wind  
Wind Speed 8 mph (WNW)    
Max Wind Speed 18 mph    
Max Gust Speed 29 mph    
Visibility 10 miles    
Events      
T = Trace of Precipitation, MM = Missing Value Source: NWS Daily Summary

Daily Weather History Graph

Daily Weather History Graph

Search for Another Location

Airport or City:

Trip Planner

Search our weather history database for the weather conditions in past years. The results will help you decide how hot, cold, wet, or windy it might be!

Date:

Astronomy

Feb. 15, 2013 Rise Set
Actual Time 6:52 AM MST 5:25 PM MST
Civil Twilight 6:23 AM MST 5:54 PM MST
Nautical Twilight 5:49 AM MST 6:28 PM MST
Astronomical Twilight 5:16 AM MST 7:01 PM MST
Moon 9:17 AM MST (2/15) 11:42 PM MST (2/15)
Length of Visible Light 11h 31m
Length of Day
10h 32m
Waxing Crescent, 31% of the Moon is Illuminated
Feb 15
Waxing Crescent
Feb 17
First Quarter
Feb 25
Full
Mar 4
Last Quarter
Mar 11
New

Hourly Weather History & Observations

Time (MST) Temp. Windchill Dew Point Humidity Pressure Visibility Wind Dir Wind Speed Gust Speed Precip Events Conditions
12:53 AM 6.1 °F - -0.0 °F 76% 30.35 in 10.0 mi Calm Calm - N/A   Clear
1:53 AM 10.9 °F 0.2 °F 3.9 °F 73% 30.34 in 10.0 mi West 6.9 mph - N/A   Clear
2:53 AM 10.0 °F -1.9 °F 5.0 °F 80% 30.34 in 10.0 mi West 8.1 mph - N/A   Clear
3:53 AM 12.9 °F 0.7 °F 6.1 °F 74% 30.32 in 10.0 mi West 9.2 mph - N/A   Clear
4:53 AM 12.9 °F 0.7 °F 6.1 °F 74% 30.33 in 10.0 mi West 9.2 mph - N/A   Scattered Clouds
5:53 AM 14.0 °F - 6.1 °F 71% 30.35 in 10.0 mi Calm Calm - N/A   Overcast
6:00 AM - - - N/A% - - North - - N/A   Unknown
6:53 AM 12.0 °F 5.9 °F 7.0 °F 80% 30.36 in 10.0 mi WNW 3.5 mph - N/A   Overcast
7:53 AM 16.0 °F 8.8 °F 7.0 °F 68% 30.39 in 10.0 mi Variable 4.6 mph - N/A   Overcast
8:53 AM 16.0 °F 6.3 °F 6.1 °F 65% 30.42 in 10.0 mi North 6.9 mph 17.3 mph N/A   Scattered Clouds
9:53 AM 19.0 °F 5.6 °F 5.0 °F 54% 30.43 in 10.0 mi NNW 13.8 mph 20.7 mph N/A   Partly Cloudy
10:53 AM 19.9 °F 7.9 °F 3.9 °F 50% 30.41 in 10.0 mi NNW 11.5 mph 18.4 mph N/A   Mostly Cloudy
11:53 AM 21.0 °F 8.1 °F 1.9 °F 44% 30.41 in 10.0 mi NW 13.8 mph 25.3 mph N/A   Partly Cloudy
12:53 PM 21.9 °F 12.5 °F 1.0 °F 40% 30.40 in 10.0 mi NW 8.1 mph 20.7 mph N/A   Partly Cloudy
1:53 PM 23.0 °F 13.9 °F -0.0 °F 37% 30.36 in 10.0 mi NNW 8.1 mph 17.3 mph N/A   Clear
2:53 PM 25.0 °F 17.1 °F -0.0 °F 34% 30.35 in 10.0 mi NW 6.9 mph - N/A   Clear
3:53 PM 21.9 °F 12.5 °F 5.0 °F 48% 30.35 in 10.0 mi West 8.1 mph 19.6 mph N/A   Partly Cloudy
4:53 PM 21.0 °F 11.4 °F 5.0 °F 50% 30.37 in 10.0 mi WNW 8.1 mph - N/A   Overcast
5:53 PM 19.9 °F 11.1 °F 6.1 °F 55% 30.33 in 10.0 mi West 6.9 mph - N/A   Overcast
6:53 PM 17.1 °F 4.3 °F 10.9 °F 77% 30.34 in 10.0 mi West 11.5 mph - N/A   Overcast
7:53 PM 17.1 °F 7.6 °F 12.0 °F 81% 30.30 in 10.0 mi NW 6.9 mph - N/A   Overcast
8:53 PM 18.0 °F 9.8 °F 10.9 °F 74% 30.27 in 10.0 mi WNW 5.8 mph - N/A   Overcast
9:53 PM 21.0 °F 9.9 °F 12.0 °F 68% 30.22 in 10.0 mi West 10.4 mph 24.2 mph N/A   Mostly Cloudy
10:53 PM 21.0 °F 16.2 °F 12.9 °F 71% 30.19 in 10.0 mi WNW 3.5 mph - N/A   Partly Cloudy
11:53 PM 21.9 °F 8.7 °F 12.9 °F 68% 30.14 in 10.0 mi West 15.0 mph 23.0 mph N/A   Clear